contact:dominique.lefevre@mio.osupytheas.fr, maurice.libes@osupytheas.fr, didier.mallarino@osupytheas.fr
Project:EMSO http://www.emso-fr.org/EMSO-France
Depth: 2436.0 m
Title:EMSO Ligure Ouest : Data MII capteur MICROCAT
DateTime_Computer,Latitude,Longitude,Temperature,Conductivity,Pressure,DateTime_Instrument
DateTime_Computer,Latitude,Longitude,degC,S m-1,dbar,DateTime_Instrument
2023-01-08T00:00:46Z,42.805,6.029,13.3008,4.60145,2470.553,2023-1-08T02:06:57Z
2023-01-08T00:03:49Z,42.805,6.029,13.3015,4.60155,2470.553,2023-1-08T02:10:00Z
2023-01-08T00:06:52Z,42.805,6.029,13.3009,4.60220,2470.591,2023-1-08T02:13:03Z
2023-01-08T00:09:55Z,42.805,6.029,13.3024,4.60142,2470.581,2023-1-08T02:16:06Z
2023-01-08T00:12:58Z,42.805,6.029,13.3031,4.60139,2470.567,2023-1-08T02:19:09Z
2023-01-08T00:16:01Z,42.805,6.029,13.3024,4.60140,2470.553,2023-1-08T02:22:12Z
2023-01-08T00:19:04Z,42.805,6.029,13.3030,4.60147,2470.52,2023-1-08T02:25:15Z
2023-01-08T00:22:07Z,42.805,6.029,13.3014,4.60129,2470.53,2023-1-08T02:28:18Z
2023-01-08T00:25:10Z,42.805,6.029,13.3026,4.60146,2470.553,2023-1-08T02:31:21Z
2023-01-08T00:28:13Z,42.805,6.029,13.3011,4.60203,2470.553,2023-1-08T02:34:24Z
2023-01-08T00:31:16Z,42.805,6.029,13.3016,4.60193,2470.544,2023-1-08T02:37:28Z
2023-01-08T00:34:20Z,42.805,6.029,13.3012,4.60109,2470.553,2023-1-08T02:40:31Z
2023-01-08T00:37:23Z,42.805,6.029,13.3011,4.60099,2470.53,2023-1-08T02:43:34Z
2023-01-08T00:40:26Z,42.805,6.029,13.3009,4.60099,2470.544,2023-1-08T02:46:37Z
2023-01-08T00:43:29Z,42.805,6.029,13.3014,4.60135,2470.53,2023-1-08T02:49:40Z
2023-01-08T00:46:32Z,42.805,6.029,13.3010,4.60113,2470.53,2023-1-08T02:52:43Z
2023-01-08T00:49:35Z,42.805,6.029,13.3012,4.60132,2470.544,2023-1-08T02:55:46Z
2023-01-08T00:52:38Z,42.805,6.029,13.3012,4.60178,2470.52,2023-1-08T02:58:49Z
2023-01-08T00:55:41Z,42.805,6.029,13.3011,4.60145,2470.516,2023-1-08T03:01:52Z
2023-01-08T00:58:44Z,42.805,6.029,13.3013,4.60166,2470.53,2023-1-08T03:04:55Z
2023-01-08T01:01:47Z,42.805,6.029,13.3014,4.60170,2470.507,2023-1-08T03:07:58Z
2023-01-08T01:04:50Z,42.805,6.029,13.3007,4.60193,2470.483,2023-1-08T03:11:01Z
2023-01-08T01:07:53Z,42.805,6.029,13.3008,4.60171,2470.544,2023-1-08T03:14:05Z
2023-01-08T01:10:57Z,42.805,6.029,13.3012,4.60157,2470.52,2023-1-08T03:17:08Z
2023-01-08T01:14:00Z,42.805,6.029,13.3015,4.60162,2470.544,2023-1-08T03:20:11Z
2023-01-08T01:17:03Z,42.805,6.029,13.3011,4.60155,2470.52,2023-1-08T03:23:14Z
2023-01-08T01:20:06Z,42.805,6.029,13.3011,4.60181,2470.507,2023-1-08T03:26:17Z
2023-01-08T01:23:09Z,42.805,6.029,13.3011,4.60137,2470.53,2023-1-08T03:29:20Z
2023-01-08T01:26:12Z,42.805,6.029,13.3011,4.60150,2470.544,2023-1-08T03:32:23Z
2023-01-08T01:29:15Z,42.805,6.029,13.3009,4.60137,2470.52,2023-1-08T03:35:26Z
2023-01-08T01:32:18Z,42.805,6.029,13.3013,4.60139,2470.553,2023-1-08T03:38:29Z
2023-01-08T01:35:21Z,42.805,6.029,13.3016,4.60135,2470.544,2023-1-08T03:41:32Z
2023-01-08T01:38:24Z,42.805,6.029,13.3015,4.60147,2470.544,2023-1-08T03:44:35Z
2023-01-08T01:41:27Z,42.805,6.029,13.3013,4.60147,2470.497,2023-1-08T03:47:38Z
2023-01-08T01:44:30Z,42.805,6.029,13.3018,4.60131,2470.52,2023-1-08T03:50:42Z
2023-01-08T01:47:34Z,42.805,6.029,13.3029,4.60142,2470.52,2023-1-08T03:53:45Z
2023-01-08T01:50:37Z,42.805,6.029,13.3033,4.60144,2470.52,2023-1-08T03:56:48Z
2023-01-08T01:53:40Z,42.805,6.029,13.3050,4.60138,2470.53,2023-1-08T03:59:51Z
2023-01-08T01:56:43Z,42.805,6.029,13.3056,4.60140,2470.507,2023-1-08T04:02:54Z
2023-01-08T01:59:46Z,42.805,6.029,13.3072,4.60138,2470.544,2023-1-08T04:05:57Z
2023-01-08T02:02:49Z,42.805,6.029,13.3073,4.60146,2470.544,2023-1-08T04:09:00Z
2023-01-08T02:05:52Z,42.805,6.029,13.3036,4.60134,2470.52,2023-1-08T04:12:03Z
2023-01-08T02:08:55Z,42.805,6.029,13.3036,4.60136,2470.53,2023-1-08T04:15:06Z
2023-01-08T02:11:58Z,42.805,6.029,13.3029,4.60151,2470.507,2023-1-08T04:18:09Z
2023-01-08T02:15:01Z,42.805,6.029,13.3031,4.60137,2470.53,2023-1-08T04:21:12Z
2023-01-08T02:18:04Z,42.805,6.029,13.3041,4.60137,2470.507,2023-1-08T04:24:16Z
2023-01-08T02:21:07Z,42.805,6.029,13.3043,4.60166,2470.53,2023-1-08T04:27:19Z
2023-01-08T02:24:11Z,42.805,6.029,13.3031,4.60160,2470.544,2023-1-08T04:30:22Z
2023-01-08T02:27:14Z,42.805,6.029,13.3013,4.60168,2470.507,2023-1-08T04:33:25Z
2023-01-08T02:30:17Z,42.805,6.029,13.3011,4.60146,2470.53,2023-1-08T04:36:28Z
2023-01-08T02:33:20Z,42.805,6.029,13.3013,4.60144,2470.553,2023-1-08T04:39:31Z
2023-01-08T02:36:23Z,42.805,6.029,13.3009,4.60111,2470.567,2023-1-08T04:42:34Z
2023-01-08T02:39:26Z,42.805,6.029,13.3010,4.60113,2470.497,2023-1-08T04:45:37Z
2023-01-08T02:42:29Z,42.805,6.029,13.3016,4.60142,2470.544,2023-1-08T04:48:40Z
2023-01-08T02:45:32Z,42.805,6.029,13.3010,4.60163,2470.553,2023-1-08T04:51:43Z
2023-01-08T02:48:35Z,42.805,6.029,13.3013,4.60138,2470.507,2023-1-08T04:54:46Z
2023-01-08T02:51:38Z,42.805,6.029,13.3013,4.60124,2470.53,2023-1-08T04:57:49Z
2023-01-08T02:54:41Z,42.805,6.029,13.3012,4.60134,2470.52,2023-1-08T05:00:53Z
2023-01-08T02:57:44Z,42.805,6.029,13.3015,4.60162,2470.544,2023-1-08T05:03:56Z
2023-01-08T03:00:48Z,42.805,6.029,13.3012,4.60185,2470.53,2023-1-08T05:06:59Z
2023-01-08T03:03:51Z,42.805,6.029,13.3024,4.60128,2470.52,2023-1-08T05:10:02Z
2023-01-08T03:06:54Z,42.805,6.029,13.3056,4.60123,2470.553,2023-1-08T05:13:05Z
2023-01-08T03:09:57Z,42.805,6.029,13.3048,4.60142,2470.567,2023-1-08T05:16:08Z
2023-01-08T03:13:00Z,42.805,6.029,13.3061,4.60160,2470.567,2023-1-08T05:19:11Z
2023-01-08T03:16:03Z,42.805,6.029,13.3046,4.60135,2470.53,2023-1-08T05:22:14Z
2023-01-08T03:19:06Z,42.805,6.029,13.3057,4.60132,2470.544,2023-1-08T05:25:17Z
2023-01-08T03:22:09Z,42.805,6.029,13.3072,4.60132,2470.52,2023-1-08T05:28:20Z
2023-01-08T03:25:12Z,42.805,6.029,13.3082,4.60136,2470.567,2023-1-08T05:31:23Z
2023-01-08T03:28:15Z,42.805,6.029,13.3090,4.60134,2470.553,2023-1-08T05:34:26Z
2023-01-08T03:31:18Z,42.805,6.029,13.3084,4.60115,2470.544,2023-1-08T05:37:30Z
2023-01-08T03:34:21Z,42.805,6.029,13.3090,4.60125,2470.544,2023-1-08T05:40:33Z
2023-01-08T03:37:25Z,42.805,6.029,13.3092,4.60126,2470.553,2023-1-08T05:43:36Z
2023-01-08T03:40:28Z,42.805,6.029,13.3088,4.60133,2470.53,2023-1-08T05:46:39Z
2023-01-08T03:43:31Z,42.805,6.029,13.3095,4.60125,2470.567,2023-1-08T05:49:42Z
2023-01-08T03:46:34Z,42.805,6.029,13.3098,4.60123,2470.567,2023-1-08T05:52:45Z
2023-01-08T03:49:37Z,42.805,6.029,13.3096,4.60128,2470.6,2023-1-08T05:55:48Z
2023-01-08T03:52:40Z,42.805,6.029,13.3104,4.60102,2470.591,2023-1-08T05:58:51Z
2023-01-08T03:55:43Z,42.805,6.029,13.3095,4.60101,2470.614,2023-1-08T06:01:54Z
2023-01-08T03:58:46Z,42.805,6.029,13.3091,4.60097,2470.567,2023-1-08T06:04:57Z
2023-01-08T04:01:49Z,42.805,6.029,13.3107,4.60095,2470.591,2023-1-08T06:08:00Z
2023-01-08T04:04:52Z,42.805,6.029,13.3100,4.60107,2470.567,2023-1-08T06:11:03Z
2023-01-08T04:07:55Z,42.805,6.029,13.3092,4.60097,2470.591,2023-1-08T06:14:07Z
2023-01-08T04:10:58Z,42.805,6.029,13.3093,4.60105,2470.591,2023-1-08T06:17:10Z
2023-01-08T04:14:02Z,42.805,6.029,13.3091,4.60104,2470.591,2023-1-08T06:20:13Z
2023-01-08T04:17:05Z,42.805,6.029,13.3090,4.60108,2470.637,2023-1-08T06:23:16Z
2023-01-08T04:20:08Z,42.805,6.029,13.3082,4.60103,2470.591,2023-1-08T06:26:19Z
2023-01-08T04:23:11Z,42.805,6.029,13.3075,4.60085,2470.591,2023-1-08T06:29:22Z
2023-01-08T04:26:14Z,42.805,6.029,13.3070,4.60095,2470.577,2023-1-08T06:32:25Z
2023-01-08T04:29:17Z,42.805,6.029,13.3074,4.60087,2470.591,2023-1-08T06:35:28Z
2023-01-08T04:32:20Z,42.805,6.029,13.3085,4.60082,2470.577,2023-1-08T06:38:31Z
2023-01-08T04:35:23Z,42.805,6.029,13.3062,4.60099,2470.591,2023-1-08T06:41:34Z
2023-01-08T04:38:26Z,42.805,6.029,13.3057,4.60143,2470.614,2023-1-08T06:44:37Z
2023-01-08T04:41:29Z,42.805,6.029,13.3063,4.60128,2470.614,2023-1-08T06:47:40Z
2023-01-08T04:44:32Z,42.805,6.029,13.3068,4.60110,2470.614,2023-1-08T06:50:44Z
2023-01-08T04:47:35Z,42.805,6.029,13.3079,4.60111,2470.591,2023-1-08T06:53:47Z
2023-01-08T04:50:39Z,42.805,6.029,13.3048,4.60116,2470.6,2023-1-08T06:56:50Z
2023-01-08T04:53:42Z,42.805,6.029,13.3048,4.60144,2470.661,2023-1-08T06:59:53Z
2023-01-08T04:56:45Z,42.805,6.029,13.3051,4.60093,2470.6,2023-1-08T07:02:56Z
2023-01-08T04:59:48Z,42.805,6.029,13.3067,4.60098,2470.637,2023-1-08T07:05:59Z
2023-01-08T05:02:51Z,42.805,6.029,13.3059,4.60131,2470.646,2023-1-08T07:09:02Z
2023-01-08T05:05:54Z,42.805,6.029,13.3056,4.60127,2470.661,2023-1-08T07:12:05Z
2023-01-08T05:08:57Z,42.805,6.029,13.3063,4.60124,2470.637,2023-1-08T07:15:08Z
2023-01-08T05:12:00Z,42.805,6.029,13.3065,4.60150,2470.624,2023-1-08T07:18:11Z
2023-01-08T05:15:03Z,42.805,6.029,13.3074,4.60134,2470.661,2023-1-08T07:21:14Z
2023-01-08T05:18:06Z,42.805,6.029,13.3077,4.60139,2470.624,2023-1-08T07:24:17Z
2023-01-08T05:21:09Z,42.805,6.029,13.3076,4.60148,2470.684,2023-1-08T07:27:21Z
2023-01-08T05:24:12Z,42.805,6.029,13.3070,4.60149,2470.646,2023-1-08T07:30:24Z
2023-01-08T05:27:16Z,42.805,6.029,13.3066,4.60137,2470.646,2023-1-08T07:33:27Z
2023-01-08T05:30:19Z,42.805,6.029,13.3067,4.60131,2470.67,2023-1-08T07:36:30Z
2023-01-08T05:33:22Z,42.805,6.029,13.3058,4.60138,2470.637,2023-1-08T07:39:33Z
2023-01-08T05:36:25Z,42.805,6.029,13.3066,4.60131,2470.707,2023-1-08T07:42:36Z
2023-01-08T05:39:28Z,42.805,6.029,13.3043,4.60132,2470.661,2023-1-08T07:45:39Z
2023-01-08T05:42:31Z,42.805,6.029,13.3058,4.60158,2470.661,2023-1-08T07:48:42Z
2023-01-08T05:45:34Z,42.805,6.029,13.3061,4.60110,2470.661,2023-1-08T07:51:45Z
2023-01-08T05:48:37Z,42.805,6.029,13.3051,4.60164,2470.646,2023-1-08T07:54:48Z
2023-01-08T05:51:40Z,42.805,6.029,13.3049,4.60116,2470.637,2023-1-08T07:57:51Z
2023-01-08T05:54:43Z,42.805,6.029,13.3075,4.60144,2470.67,2023-1-08T08:00:54Z
2023-01-08T05:57:46Z,42.805,6.029,13.3068,4.60165,2470.693,2023-1-08T08:03:58Z
2023-01-08T06:00:49Z,42.805,6.029,13.3085,4.60179,2470.693,2023-1-08T08:07:01Z
2023-01-08T06:03:52Z,42.805,6.029,13.3046,4.60167,2470.684,2023-1-08T08:10:04Z
2023-01-08T06:06:56Z,42.805,6.029,13.3088,4.60126,2470.67,2023-1-08T08:13:07Z
2023-01-08T06:09:59Z,42.805,6.029,13.3054,4.60170,2470.717,2023-1-08T08:16:10Z
2023-01-08T06:13:02Z,42.805,6.029,13.3052,4.60140,2470.693,2023-1-08T08:19:13Z
2023-01-08T06:16:05Z,42.805,6.029,13.3047,4.60152,2470.67,2023-1-08T08:22:16Z
2023-01-08T06:19:08Z,42.805,6.029,13.3039,4.60148,2470.707,2023-1-08T08:25:19Z
2023-01-08T06:22:11Z,42.805,6.029,13.3037,4.60162,2470.73,2023-1-08T08:28:22Z
2023-01-08T06:25:14Z,42.805,6.029,13.3044,4.60140,2470.73,2023-1-08T08:31:25Z
2023-01-08T06:28:17Z,42.805,6.029,13.3052,4.60122,2470.73,2023-1-08T08:34:28Z
2023-01-08T06:31:20Z,42.805,6.029,13.3053,4.60178,2470.73,2023-1-08T08:37:31Z
2023-01-08T06:34:23Z,42.805,6.029,13.3052,4.60153,2470.67,2023-1-08T08:40:35Z
2023-01-08T06:37:26Z,42.805,6.029,13.3041,4.60150,2470.717,2023-1-08T08:43:38Z
2023-01-08T06:40:29Z,42.805,6.029,13.3044,4.60200,2470.693,2023-1-08T08:46:41Z
2023-01-08T06:43:33Z,42.805,6.029,13.3039,4.60172,2470.693,2023-1-08T08:49:44Z
2023-01-08T06:46:36Z,42.805,6.029,13.3044,4.60178,2470.693,2023-1-08T08:52:47Z
2023-01-08T06:49:39Z,42.805,6.029,13.3051,4.60135,2470.73,2023-1-08T08:55:50Z
2023-01-08T06:52:42Z,42.805,6.029,13.3048,4.60173,2470.754,2023-1-08T08:58:53Z
2023-01-08T06:55:45Z,42.805,6.029,13.3038,4.60154,2470.74,2023-1-08T09:01:56Z
2023-01-08T06:58:48Z,42.805,6.029,13.3043,4.60121,2470.74,2023-1-08T09:04:59Z
2023-01-08T07:01:51Z,42.805,6.029,13.3044,4.60114,2470.763,2023-1-08T09:08:02Z
2023-01-08T07:04:54Z,42.805,6.029,13.3054,4.60104,2470.74,2023-1-08T09:11:05Z
2023-01-08T07:07:57Z,42.805,6.029,13.3029,4.60114,2470.8,2023-1-08T09:14:09Z
2023-01-08T07:11:00Z,42.805,6.029,13.3042,4.60135,2470.763,2023-1-08T09:17:12Z
2023-01-08T07:14:03Z,42.805,6.029,13.3031,4.60157,2470.717,2023-1-08T09:20:15Z
2023-01-08T07:17:06Z,42.805,6.029,13.3034,4.60194,2470.763,2023-1-08T09:23:18Z
2023-01-08T07:20:10Z,42.805,6.029,13.3042,4.60200,2470.777,2023-1-08T09:26:21Z
2023-01-08T07:23:13Z,42.805,6.029,13.3051,4.60116,2470.791,2023-1-08T09:29:24Z
2023-01-08T07:26:16Z,42.805,6.029,13.3042,4.60135,2470.791,2023-1-08T09:32:27Z
2023-01-08T07:29:19Z,42.805,6.029,13.3062,4.60127,2470.763,2023-1-08T09:35:30Z
2023-01-08T07:32:22Z,42.805,6.029,13.3047,4.60170,2470.754,2023-1-08T09:38:33Z
2023-01-08T07:35:25Z,42.805,6.029,13.3045,4.60142,2470.754,2023-1-08T09:41:36Z
2023-01-08T07:38:28Z,42.805,6.029,13.3064,4.60163,2470.754,2023-1-08T09:44:39Z
2023-01-08T07:41:31Z,42.805,6.029,13.3046,4.60125,2470.754,2023-1-08T09:47:42Z
2023-01-08T07:44:34Z,42.805,6.029,13.3061,4.60132,2470.763,2023-1-08T09:50:45Z
2023-01-08T07:47:37Z,42.805,6.029,13.3078,4.60133,2470.763,2023-1-08T09:53:49Z
2023-01-08T07:50:40Z,42.805,6.029,13.3074,4.60115,2470.754,2023-1-08T09:56:52Z
2023-01-08T07:53:43Z,42.805,6.029,13.3089,4.60122,2470.777,2023-1-08T09:59:55Z
2023-01-08T07:56:47Z,42.805,6.029,13.3067,4.60146,2470.777,2023-1-08T10:02:58Z
2023-01-08T07:59:50Z,42.805,6.029,13.3070,4.60127,2470.777,2023-1-08T10:06:01Z
2023-01-08T08:02:53Z,42.805,6.029,13.3091,4.60129,2470.763,2023-1-08T10:09:04Z
2023-01-08T08:05:56Z,42.805,6.029,13.3084,4.60135,2470.74,2023-1-08T10:12:07Z
2023-01-08T08:08:59Z,42.805,6.029,13.3088,4.60132,2470.754,2023-1-08T10:15:10Z
2023-01-08T08:12:02Z,42.805,6.029,13.3046,4.60164,2470.763,2023-1-08T10:18:13Z
2023-01-08T08:15:05Z,42.805,6.029,13.3089,4.60132,2470.754,2023-1-08T10:21:16Z
2023-01-08T08:18:08Z,42.805,6.029,13.3084,4.60127,2470.74,2023-1-08T10:24:19Z
2023-01-08T08:21:11Z,42.805,6.029,13.3054,4.60107,2470.777,2023-1-08T10:27:23Z
2023-01-08T08:24:14Z,42.805,6.029,13.3041,4.60157,2470.74,2023-1-08T10:30:26Z
2023-01-08T08:27:17Z,42.805,6.029,13.3064,4.60188,2470.8,2023-1-08T10:33:29Z
2023-01-08T08:30:20Z,42.805,6.029,13.3104,4.60165,2470.74,2023-1-08T10:36:32Z
2023-01-08T08:33:24Z,42.805,6.029,13.3098,4.60097,2470.754,2023-1-08T10:39:35Z
2023-01-08T08:36:27Z,42.805,6.029,13.3069,4.60107,2470.777,2023-1-08T10:42:38Z
2023-01-08T08:39:30Z,42.805,6.029,13.3057,4.60117,2470.787,2023-1-08T10:45:41Z
2023-01-08T08:42:33Z,42.805,6.029,13.3068,4.60138,2470.763,2023-1-08T10:48:44Z
2023-01-08T08:45:36Z,42.805,6.029,13.3065,4.60140,2470.763,2023-1-08T10:51:47Z
2023-01-08T08:48:39Z,42.805,6.029,13.3065,4.60167,2470.777,2023-1-08T10:54:50Z
2023-01-08T08:51:42Z,42.805,6.029,13.3045,4.60127,2470.787,2023-1-08T10:57:53Z
2023-01-08T08:54:45Z,42.805,6.029,13.3044,4.60106,2470.754,2023-1-08T11:00:56Z
2023-01-08T08:57:48Z,42.805,6.029,13.3057,4.60108,2470.777,2023-1-08T11:04:00Z
2023-01-08T09:00:51Z,42.805,6.029,13.3052,4.60095,2470.777,2023-1-08T11:07:03Z
2023-01-08T09:03:54Z,42.805,6.029,13.3045,4.60104,2470.777,2023-1-08T11:10:06Z
2023-01-08T09:06:57Z,42.805,6.029,13.3045,4.60114,2470.777,2023-1-08T11:13:09Z
2023-01-08T09:10:01Z,42.805,6.029,13.3050,4.60114,2470.75,2023-1-08T11:16:12Z
2023-01-08T09:13:04Z,42.805,6.029,13.3052,4.60134,2470.763,2023-1-08T11:19:15Z
2023-01-08T09:16:07Z,42.805,6.029,13.3051,4.60114,2470.754,2023-1-08T11:22:18Z
2023-01-08T09:19:10Z,42.805,6.029,13.3058,4.60094,2470.787,2023-1-08T11:25:21Z
2023-01-08T09:22:13Z,42.805,6.029,13.3041,4.60105,2470.754,2023-1-08T11:28:24Z
2023-01-08T09:25:16Z,42.805,6.029,13.3041,4.60133,2470.754,2023-1-08T11:31:27Z
2023-01-08T09:28:19Z,42.805,6.029,13.3047,4.60112,2470.754,2023-1-08T11:34:30Z
2023-01-08T09:31:22Z,42.805,6.029,13.3048,4.60088,2470.74,2023-1-08T11:37:34Z
2023-01-08T09:34:25Z,42.805,6.029,13.3043,4.60101,2470.763,2023-1-08T11:40:37Z
2023-01-08T09:37:28Z,42.805,6.029,13.3057,4.60112,2470.74,2023-1-08T11:43:40Z
2023-01-08T09:40:31Z,42.805,6.029,13.3067,4.60104,2470.777,2023-1-08T11:46:43Z
2023-01-08T09:43:34Z,42.805,6.029,13.3052,4.60107,2470.73,2023-1-08T11:49:46Z
2023-01-08T09:46:38Z,42.805,6.029,13.3061,4.60121,2470.754,2023-1-08T11:52:49Z
2023-01-08T09:49:41Z,42.805,6.029,13.3070,4.60105,2470.74,2023-1-08T11:55:52Z
2023-01-08T09:52:44Z,42.805,6.029,13.3082,4.60121,2470.74,2023-1-08T11:58:55Z
2023-01-08T09:55:47Z,42.805,6.029,13.3058,4.60110,2470.754,2023-1-08T12:01:58Z
2023-01-08T09:58:50Z,42.805,6.029,13.3067,4.60105,2470.754,2023-1-08T12:05:01Z
2023-01-08T10:01:53Z,42.805,6.029,13.3055,4.60101,2470.777,2023-1-08T12:08:04Z
2023-01-08T10:04:56Z,42.805,6.029,13.3061,4.60084,2470.717,2023-1-08T12:11:08Z
2023-01-08T10:07:59Z,42.805,6.029,13.3044,4.60104,2470.777,2023-1-08T12:14:11Z
2023-01-08T10:11:02Z,42.805,6.029,13.3055,4.60107,2470.754,2023-1-08T12:17:14Z
2023-01-08T10:14:05Z,42.805,6.029,13.3051,4.60092,2470.717,2023-1-08T12:20:17Z
2023-01-08T10:17:08Z,42.805,6.029,13.3041,4.60102,2470.74,2023-1-08T12:23:20Z
2023-01-08T10:20:12Z,42.805,6.029,13.3043,4.60109,2470.763,2023-1-08T12:26:23Z
2023-01-08T10:23:15Z,42.805,6.029,13.3064,4.60120,2470.763,2023-1-08T12:29:26Z
2023-01-08T10:26:18Z,42.805,6.029,13.3036,4.60091,2470.74,2023-1-08T12:32:29Z
2023-01-08T10:29:21Z,42.805,6.029,13.3063,4.60094,2470.74,2023-1-08T12:35:32Z
2023-01-08T10:32:24Z,42.805,6.029,13.3058,4.60095,2470.777,2023-1-08T12:38:35Z
2023-01-08T10:35:27Z,42.805,6.029,13.3058,4.60089,2470.74,2023-1-08T12:41:38Z
2023-01-08T10:38:30Z,42.805,6.029,13.3047,4.60089,2470.693,2023-1-08T12:44:41Z
2023-01-08T10:41:33Z,42.805,6.029,13.3063,4.60094,2470.74,2023-1-08T12:47:45Z
2023-01-08T10:44:36Z,42.805,6.029,13.3058,4.60101,2470.717,2023-1-08T12:50:48Z
2023-01-08T10:47:39Z,42.805,6.029,13.3050,4.60092,2470.693,2023-1-08T12:53:51Z
2023-01-08T10:50:42Z,42.805,6.029,13.3068,4.60084,2470.74,2023-1-08T12:56:54Z
2023-01-08T10:53:46Z,42.805,6.029,13.3055,4.60091,2470.74,2023-1-08T12:59:57Z
2023-01-08T10:56:49Z,42.805,6.029,13.3043,4.60114,2470.74,2023-1-08T13:03:00Z
2023-01-08T10:59:52Z,42.805,6.029,13.3070,4.60093,2470.74,2023-1-08T13:06:03Z
2023-01-08T11:02:55Z,42.805,6.029,13.3061,4.60104,2470.717,2023-1-08T13:09:06Z
2023-01-08T11:05:58Z,42.805,6.029,13.3050,4.60113,2470.707,2023-1-08T13:12:09Z
2023-01-08T11:09:01Z,42.805,6.029,13.3048,4.60104,2470.693,2023-1-08T13:15:12Z
2023-01-08T11:12:04Z,42.805,6.029,13.3054,4.60099,2470.684,2023-1-08T13:18:15Z
2023-01-08T11:15:07Z,42.805,6.029,13.3067,4.60103,2470.73,2023-1-08T13:21:19Z
2023-01-08T11:18:10Z,42.805,6.029,13.3046,4.60103,2470.707,2023-1-08T13:24:22Z
2023-01-08T11:21:13Z,42.805,6.029,13.3060,4.60123,2470.717,2023-1-08T13:27:25Z
2023-01-08T11:24:16Z,42.805,6.029,13.3056,4.60093,2470.684,2023-1-08T13:30:28Z
2023-01-08T11:27:19Z,42.805,6.029,13.3056,4.60092,2470.721,2023-1-08T13:33:31Z
2023-01-08T11:30:23Z,42.805,6.029,13.3060,4.60087,2470.684,2023-1-08T13:36:34Z
2023-01-08T11:33:26Z,42.805,6.029,13.3054,4.60095,2470.646,2023-1-08T13:39:37Z
2023-01-08T11:36:29Z,42.805,6.029,13.3051,4.60095,2470.73,2023-1-08T13:42:40Z
2023-01-08T11:39:32Z,42.805,6.029,13.3067,4.60090,2470.661,2023-1-08T13:45:43Z
2023-01-08T11:42:35Z,42.805,6.029,13.3060,4.60092,2470.684,2023-1-08T13:48:46Z
2023-01-08T11:45:38Z,42.805,6.029,13.3055,4.60088,2470.67,2023-1-08T13:51:49Z
2023-01-08T11:48:41Z,42.805,6.029,13.3064,4.60092,2470.717,2023-1-08T13:54:53Z
2023-01-08T11:51:44Z,42.805,6.029,13.3055,4.60101,2470.707,2023-1-08T13:57:56Z
2023-01-08T11:54:47Z,42.805,6.029,13.3044,4.60092,2470.707,2023-1-08T14:00:59Z
2023-01-08T11:57:50Z,42.805,6.029,13.3056,4.60098,2470.684,2023-1-08T14:04:02Z
2023-01-08T12:00:53Z,42.805,6.029,13.3054,4.60092,2470.67,2023-1-08T14:07:05Z
2023-01-08T12:03:57Z,42.805,6.029,13.3058,4.60106,2470.67,2023-1-08T14:10:08Z
2023-01-08T12:07:00Z,42.805,6.029,13.3054,4.60091,2470.661,2023-1-08T14:13:11Z
2023-01-08T12:10:03Z,42.805,6.029,13.3055,4.60088,2470.684,2023-1-08T14:16:14Z
2023-01-08T12:13:06Z,42.805,6.029,13.3051,4.60090,2470.707,2023-1-08T14:19:17Z
2023-01-08T12:16:09Z,42.805,6.029,13.3053,4.60091,2470.646,2023-1-08T14:22:20Z
2023-01-08T12:19:12Z,42.805,6.029,13.3063,4.60099,2470.646,2023-1-08T14:25:23Z
2023-01-08T12:22:15Z,42.805,6.029,13.3058,4.60097,2470.646,2023-1-08T14:28:27Z
2023-01-08T12:25:18Z,42.805,6.029,13.3063,4.60090,2470.661,2023-1-08T14:31:30Z
2023-01-08T12:28:21Z,42.805,6.029,13.3050,4.60092,2470.67,2023-1-08T14:34:33Z
2023-01-08T12:31:24Z,42.805,6.029,13.3054,4.60092,2470.661,2023-1-08T14:37:36Z
2023-01-08T12:34:27Z,42.805,6.029,13.3054,4.60092,2470.684,2023-1-08T14:40:39Z
2023-01-08T12:37:30Z,42.805,6.029,13.3071,4.60095,2470.624,2023-1-08T14:43:42Z
2023-01-08T12:40:34Z,42.805,6.029,13.3042,4.60102,2470.614,2023-1-08T14:46:45Z
2023-01-08T12:43:37Z,42.805,6.029,13.3050,4.60097,2470.624,2023-1-08T14:49:48Z
2023-01-08T12:46:40Z,42.805,6.029,13.3051,4.60096,2470.661,2023-1-08T14:52:51Z
2023-01-08T12:49:43Z,42.805,6.029,13.3056,4.60108,2470.661,2023-1-08T14:55:54Z
2023-01-08T12:52:46Z,42.805,6.029,13.3051,4.60092,2470.637,2023-1-08T14:58:57Z
2023-01-08T12:55:49Z,42.805,6.029,13.3054,4.60101,2470.637,2023-1-08T15:02:01Z
2023-01-08T12:58:52Z,42.805,6.029,13.3060,4.60094,2470.661,2023-1-08T15:05:04Z
2023-01-08T13:01:55Z,42.805,6.029,13.3050,4.60121,2470.637,2023-1-08T15:08:07Z
2023-01-08T13:04:58Z,42.805,6.029,13.3054,4.60094,2470.614,2023-1-08T15:11:10Z
2023-01-08T13:08:01Z,42.805,6.029,13.3060,4.60097,2470.624,2023-1-08T15:14:13Z
2023-01-08T13:11:04Z,42.805,6.029,13.3067,4.60097,2470.614,2023-1-08T15:17:16Z
2023-01-08T13:14:08Z,42.805,6.029,13.3060,4.60096,2470.624,2023-1-08T15:20:19Z
2023-01-08T13:17:11Z,42.805,6.029,13.3068,4.60099,2470.6,2023-1-08T15:23:22Z
2023-01-08T13:20:14Z,42.805,6.029,13.3056,4.60098,2470.614,2023-1-08T15:26:25Z
2023-01-08T13:23:17Z,42.805,6.029,13.3048,4.60092,2470.637,2023-1-08T15:29:28Z
2023-01-08T13:26:20Z,42.805,6.029,13.3049,4.60109,2470.6,2023-1-08T15:32:31Z
2023-01-08T13:29:23Z,42.805,6.029,13.3063,4.60097,2470.6,2023-1-08T15:35:34Z
2023-01-08T13:32:26Z,42.805,6.029,13.3058,4.60088,2470.637,2023-1-08T15:38:38Z
2023-01-08T13:35:29Z,42.805,6.029,13.3060,4.60097,2470.577,2023-1-08T15:41:41Z
2023-01-08T13:38:32Z,42.805,6.029,13.3070,4.60103,2470.624,2023-1-08T15:44:44Z
2023-01-08T13:41:35Z,42.805,6.029,13.3054,4.60099,2470.567,2023-1-08T15:47:47Z
2023-01-08T13:44:38Z,42.805,6.029,13.3061,4.60100,2470.591,2023-1-08T15:50:50Z
2023-01-08T13:47:41Z,42.805,6.029,13.3057,4.60109,2470.591,2023-1-08T15:53:53Z
2023-01-08T13:50:45Z,42.805,6.029,13.3052,4.60100,2470.614,2023-1-08T15:56:56Z
2023-01-08T13:53:48Z,42.805,6.029,13.3051,4.60099,2470.6,2023-1-08T15:59:59Z
2023-01-08T13:56:51Z,42.805,6.029,13.3050,4.60104,2470.6,2023-1-08T16:03:02Z
2023-01-08T13:59:54Z,42.805,6.029,13.3061,4.60092,2470.614,2023-1-08T16:06:05Z
2023-01-08T14:02:57Z,42.805,6.029,13.3053,4.60103,2470.614,2023-1-08T16:09:08Z
2023-01-08T14:06:00Z,42.805,6.029,13.3061,4.60101,2470.591,2023-1-08T16:12:12Z
2023-01-08T14:09:03Z,42.805,6.029,13.3055,4.60099,2470.577,2023-1-08T16:15:15Z
2023-01-08T14:12:06Z,42.805,6.029,13.3046,4.60103,2470.553,2023-1-08T16:18:18Z
2023-01-08T14:15:09Z,42.805,6.029,13.3062,4.60092,2470.6,2023-1-08T16:21:21Z
2023-01-08T14:18:12Z,42.805,6.029,13.3041,4.60097,2470.591,2023-1-08T16:24:24Z
2023-01-08T14:21:15Z,42.805,6.029,13.3056,4.60094,2470.577,2023-1-08T16:27:27Z
2023-01-08T14:24:19Z,42.805,6.029,13.3058,4.60090,2470.591,2023-1-08T16:30:30Z
2023-01-08T14:27:22Z,42.805,6.029,13.3045,4.60099,2470.567,2023-1-08T16:33:33Z
2023-01-08T14:30:25Z,42.805,6.029,13.3063,4.60087,2470.614,2023-1-08T16:36:36Z
2023-01-08T14:33:28Z,42.805,6.029,13.3041,4.60094,2470.577,2023-1-08T16:39:39Z
2023-01-08T14:36:31Z,42.805,6.029,13.3043,4.60089,2470.614,2023-1-08T16:42:42Z
2023-01-08T14:39:34Z,42.805,6.029,13.3045,4.60092,2470.591,2023-1-08T16:45:46Z
2023-01-08T14:42:37Z,42.805,6.029,13.3050,4.60095,2470.591,2023-1-08T16:48:49Z
2023-01-08T14:45:40Z,42.805,6.029,13.3042,4.60086,2470.6,2023-1-08T16:51:52Z
2023-01-08T14:48:43Z,42.805,6.029,13.3042,4.60110,2470.614,2023-1-08T16:54:55Z
2023-01-08T14:51:46Z,42.805,6.029,13.3046,4.60089,2470.591,2023-1-08T16:57:58Z
2023-01-08T14:54:49Z,42.805,6.029,13.3045,4.60090,2470.577,2023-1-08T17:01:01Z
2023-01-08T14:57:52Z,42.805,6.029,13.3054,4.60086,2470.53,2023-1-08T17:04:04Z
2023-01-08T15:00:56Z,42.805,6.029,13.3045,4.60089,2470.53,2023-1-08T17:07:07Z
2023-01-08T15:03:59Z,42.805,6.029,13.3063,4.60094,2470.637,2023-1-08T17:10:10Z
2023-01-08T15:07:02Z,42.805,6.029,13.3053,4.60105,2470.553,2023-1-08T17:13:13Z
2023-01-08T15:10:05Z,42.805,6.029,13.3054,4.60103,2470.553,2023-1-08T17:16:16Z
2023-01-08T15:13:08Z,42.805,6.029,13.3056,4.60110,2470.577,2023-1-08T17:19:19Z